| time (UTC) | temp F | wind direction | speed knots | gust knots | rain 1hr in | rain 24hr in | rain mn in | humidity % | barometer mb |
| 20260503200042 | 61 | 5 | 7.0 | 13.0 | 0.00 | 0.00 | 0.00 | 37 | 1015.8 |
| 20260503194553 | 61 | 270 | 6.1 | 11.3 | 0.00 | 0.00 | 0.00 | 39 | 1015.9 |
| 20260503193050 | 60 | 301 | 7.0 | 14.8 | 0.00 | 0.00 | 0.00 | 40 | 1016.1 |
| 20260503191545 | 60 | 294 | 8.7 | 13.9 | 0.00 | 0.00 | 0.00 | 39 | 1016.3 |
| 20260503190045 | 60 | 352 | 2.6 | 13.9 | 0.00 | 0.00 | 0.00 | 41 | 1016.4 |
| 20260503184542 | 60 | 299 | 6.1 | 15.6 | 0.00 | 0.00 | 0.00 | 42 | 1016.6 |
| 20260503183048 | 59 | 290 | 6.1 | 13.9 | 0.00 | 0.00 | 0.00 | 42 | 1016.7 |
| 20260503181559 | 59 | 224 | 3.5 | 15.6 | 0.00 | 0.00 | 0.00 | 44 | 1016.7 |
| 20260503180046 | 59 | 279 | 5.2 | 13.9 | 0.00 | 0.00 | 0.00 | 42 | 1016.8 |
| 20260503174545 | 59 | 301 | 5.2 | 13.9 | 0.00 | 0.00 | 0.00 | 42 | 1016.8 |
| 20260503173056 | 58 | 277 | 7.8 | 13.9 | 0.00 | 0.00 | 0.00 | 44 | 1017.0 |
| 20260503171546 | 57 | 313 | 7.0 | 16.5 | 0.00 | 0.00 | 0.00 | 45 | 1017.1 |
| 20260503081549 | 53 | 281 | 6.1 | 11.3 | 0.00 | 0.02 | 0.00 | 63 | 1013.2 |
| 20260503071549 | 50 | 264 | 2.6 | 5.2 | 0.00 | 0.02 | 0.00 | 76 | 1012.6 |
| 20260503054547 | 51 | 262 | 2.6 | 5.2 | 0.00 | 0.02 | 0.00 | 71 | 1012.0 |
| 20260503053046 | 53 | 274 | 0.9 | 3.5 | 0.00 | 0.02 | 0.00 | 68 | 1012.1 |
| 20260503051545 | 54 | 261 | 1.7 | 6.1 | 0.00 | 0.02 | 0.00 | 64 | 1012.3 |
| 20260503050045 | 55 | 275 | 4.3 | 7.8 | 0.00 | 0.02 | 0.00 | 60 | 1012.2 |
| 20260503044541 | 55 | 265 | 3.5 | 9.6 | 0.00 | 0.02 | 0.00 | 60 | 1012.2 |
| 20260503043049 | 55 | 305 | 2.6 | 7.0 | 0.00 | 0.02 | 0.00 | 61 | 1012.3 |
| 20260503041546 | 55 | 268 | 2.6 | 6.1 | 0.00 | 0.02 | 0.00 | 62 | 1012.2 |
| 20260503040047 | 55 | 313 | 1.7 | 6.1 | 0.00 | 0.02 | 0.00 | 62 | 1012.2 |
| 20260503034541 | 55 | 295 | 2.6 | 7.8 | 0.00 | 0.02 | 0.02 | 63 | 1012.3 |
| 20260503033053 | 55 | 257 | 1.7 | 5.2 | 0.00 | 0.02 | 0.02 | 64 | 1012.3 |
| 20260503031543 | 55 | 306 | 0.9 | 5.2 | 0.00 | 0.02 | 0.02 | 64 | 1012.1 |
| 20260503030047 | 56 | 284 | 1.7 | 5.2 | 0.00 | 0.02 | 0.02 | 63 | 1012.0 |
| 20260503024546 | 56 | 266 | 2.6 | 7.8 | 0.00 | 0.02 | 0.02 | 61 | 1012.3 |
| 20260503023055 | 56 | 284 | 2.6 | 6.1 | 0.00 | 0.02 | 0.02 | 61 | 1012.2 |
| 20260503021548 | 56 | 280 | 2.6 | 7.8 | 0.00 | 0.02 | 0.02 | 60 | 1012.3 |
| 20260503020046 | 56 | 302 | 1.7 | 7.0 | 0.00 | 0.02 | 0.02 | 60 | 1012.2 |
| 20260503014549 | 55 | 265 | 2.6 | 6.1 | 0.00 | 0.02 | 0.02 | 60 | 1012.2 |
| 20260503013046 | 56 | 277 | 1.7 | 6.1 | 0.00 | 0.02 | 0.02 | 59 | 1012.0 |
| 20260503011554 | 56 | 312 | 2.6 | 6.1 | 0.00 | 0.02 | 0.02 | 58 | 1011.7 |
| 20260503010051 | 56 | 288 | 1.7 | 6.1 | 0.00 | 0.02 | 0.02 | 59 | 1011.8 |
| 20260503004544 | 56 | 280 | 2.6 | 8.7 | 0.00 | 0.02 | 0.02 | 59 | 1011.7 |
| 20260503003058 | 56 | 316 | 1.7 | 8.7 | 0.00 | 0.02 | 0.02 | 59 | 1011.5 |
| 20260503001601 | 56 | 273 | 2.6 | 8.7 | 0.00 | 0.02 | 0.02 | 58 | 1011.4 |
| 20260503000111 | 56 | 324 | 4.3 | 10.4 | 0.00 | 0.02 | 0.02 | 55 | 1011.2 |
| 20260502234545 | 56 | 330 | 4.3 | 10.4 | 0.00 | 0.02 | 0.02 | 50 | 1011.1 |
| 20260502233050 | 56 | 349 | 2.6 | 7.8 | 0.00 | 0.02 | 0.02 | 49 | 1010.9 |
| 20260502231546 | 56 | 244 | 1.7 | 10.4 | 0.00 | 0.02 | 0.02 | 49 | 1010.7 |
| 20260502230044 | 56 | 279 | 4.3 | 11.3 | 0.00 | 0.02 | 0.02 | 50 | 1010.8 |
| 20260502224542 | 56 | 333 | 2.6 | 7.8 | 0.00 | 0.02 | 0.02 | 58 | 1010.8 |
| 20260502223040 | 56 | 252 | 2.6 | 9.6 | 0.00 | 0.02 | 0.02 | 59 | 1011.0 |
| 20260502221543 | 56 | 346 | 2.6 | 11.3 | 0.00 | 0.02 | 0.02 | 60 | 1010.9 |
| 20260502220047 | 56 | 339 | 3.5 | 10.4 | 0.00 | 0.02 | 0.02 | 57 | 1010.9 |
| 20260502214543 | 56 | 340 | 6.1 | 13.0 | 0.00 | 0.02 | 0.02 | 55 | 1010.8 |
| 20260502213047 | 57 | 279 | 6.1 | 12.2 | 0.00 | 0.02 | 0.02 | 61 | 1010.8 |
| 20260502211550 | 57 | 288 | 4.3 | 13.9 | 0.00 | 0.02 | 0.02 | 63 | 1010.6 |
| 20260502210043 | 57 | 306 | 5.2 | 10.4 | 0.00 | 0.02 | 0.02 | 63 | 1010.7 |
| 20260502204546 | 57 | 281 | 3.5 | 9.6 | 0.00 | 0.02 | 0.02 | 62 | 1010.6 |
| 20260502203107 | 57 | 261 | 4.3 | 11.3 | 0.00 | 0.02 | 0.02 | 61 | 1010.7 |
| 20260502201550 | 57 | 267 | 5.2 | 13.0 | 0.00 | 0.02 | 0.02 | 61 | 1010.7 |